Weather reports worldwide

Advertisment
Sheffield, United Kingdom (99107): temperature & dewpoint: 13.01.2019 09:00:00 - 19.01.2019 09:00:00 (GMT)Sheffield, United Kingdom (99107): sunshine duration: 13.01.2019 09:00:00 - 19.01.2019 09:00:00 (GMT)Sheffield, United Kingdom (99107): precipitation: 13.01.2019 09:00:00 - 19.01.2019 09:00:00 (GMT)
Date & Time tt [°C] td [°C] sd [min] rr [mm]
19.01.2019 09:00:00 1,6 0,7 0 -
19.01.2019 08:00:00 1,5 0,6 0 0,0
19.01.2019 07:00:00 1,4 0,6 0 0,0
19.01.2019 06:00:00 1,5 0,9 0 0,0
19.01.2019 05:00:00 1,3 0,8 0 0,0
19.01.2019 04:00:00 1,2 0,7 0 0,2
19.01.2019 03:00:00 1,2 0,7 0 0,2
19.01.2019 02:00:00 1,1 0,7 0 0,4
19.01.2019 01:00:00 1,0 0,4 0 0,4
19.01.2019 00:00:00 1,5 0,7 - 0,4
18.01.2019 23:00:00 1,6 0,7 0 0,6
18.01.2019 22:00:00 1,4 0,5 0 0,4
18.01.2019 21:00:00 1,0 0,4 0 0,2
18.01.2019 20:00:00 1,1 0,2 0 0,2
18.01.2019 19:00:00 2,0 0,6 0 0,6
18.01.2019 18:00:00 1,5 0,6 0 1,4
18.01.2019 17:00:00 3,4 -0,3 0 0,0
18.01.2019 16:00:00 4,0 -0,9 0 0,0
18.01.2019 15:00:00 3,7 -0,5 0 0,0
18.01.2019 14:00:00 3,4 -1,1 0 0,0
18.01.2019 13:00:00 2,9 -1,9 12 0,0
18.01.2019 12:00:00 2,1 -2,2 0 0,0
18.01.2019 11:00:00 1,1 -3,1 0 0,0
18.01.2019 10:00:00 0,6 -3,1 0 0,0
18.01.2019 09:00:00 0,1 -3,3 0 0,0
18.01.2019 08:00:00 0,0 -3,4 0 0,0
18.01.2019 07:00:00 0,2 -3,2 0 0,0
18.01.2019 06:00:00 -0,4 -3,0 0 0,0
18.01.2019 05:00:00 -0,9 -3,0 0 0,0
18.01.2019 04:00:00 -0,7 -2,8 0 0,0
18.01.2019 03:00:00 -0,5 -3,0 0 0,0
18.01.2019 02:00:00 0,1 -2,6 0 0,0
18.01.2019 01:00:00 0,0 -3,0 0 0,0
18.01.2019 00:00:00 0,4 -3,3 - 0,0
17.01.2019 23:00:00 0,9 -3,4 0 0,0
17.01.2019 22:00:00 1,3 -3,8 0 0,0
17.01.2019 21:00:00 1,7 -4,1 0 0,0
17.01.2019 20:00:00 1,6 -4,1 0 0,0
17.01.2019 19:00:00 1,3 -4,5 0 0,0
17.01.2019 18:00:00 1,3 -4,5 0 0,0
17.01.2019 17:00:00 1,7 -3,9 0 0,0
17.01.2019 16:00:00 2,6 -3,9 42 0,0
17.01.2019 15:00:00 3,5 -3,8 60 0,0
17.01.2019 14:00:00 3,5 -3,7 60 0,0
17.01.2019 13:00:00 3,3 -4,2 60 0,0
17.01.2019 12:00:00 2,9 -4,7 60 0,0
17.01.2019 11:00:00 2,4 -5,2 60 0,2
17.01.2019 10:00:00 1,5 -5,7 36 0,0
17.01.2019 09:00:00 0,8 -5,9 0 0,0
17.01.2019 08:00:00 0,1 -5,5 0 0,0
17.01.2019 07:00:00 0,6 -5,2 0 0,0
17.01.2019 06:00:00 1,1 -4,4 0 0,0
17.01.2019 05:00:00 1,0 -1,4 0 0,0
17.01.2019 04:00:00 3,6 0,6 0 0,0
17.01.2019 03:00:00 3,4 0,5 0 0,0
17.01.2019 02:00:00 2,7 0,3 0 0,0
17.01.2019 01:00:00 3,7 1,0 0 0,0
17.01.2019 00:00:00 4,0 1,7 - 0,0
16.01.2019 23:00:00 3,9 1,7 0 0,0
16.01.2019 22:00:00 3,9 1,4 0 0,0
16.01.2019 21:00:00 4,5 1,5 0 0,0
16.01.2019 20:00:00 4,1 1,5 0 0,0
16.01.2019 19:00:00 3,7 1,4 0 0,2
16.01.2019 18:00:00 3,9 1,5 0 0,2
16.01.2019 17:00:00 5,3 2,2 0 0,0
16.01.2019 16:00:00 5,5 1,9 - 0,0
16.01.2019 15:00:00 5,2 2,6 - 0,0
16.01.2019 14:00:00 5,0 2,5 - 0,2
16.01.2019 13:00:00 5,4 2,6 - 0,2
16.01.2019 12:00:00 6,2 3,4 - 0,2
16.01.2019 11:00:00 7,0 4,2 - 0,0
16.01.2019 10:00:00 7,6 5,0 - 0,2
16.01.2019 09:00:00 7,7 5,7 - 0,0
16.01.2019 08:00:00 8,0 5,7 - 0,0
16.01.2019 07:00:00 8,0 4,6 - 0,0
16.01.2019 06:00:00 8,2 4,6 - 0,0
16.01.2019 05:00:00 8,9 5,1 - 0,0
16.01.2019 04:00:00 9,1 5,1 - 0,0
16.01.2019 03:00:00 9,3 6,3 - 0,0
16.01.2019 02:00:00 8,8 5,9 - 0,0
16.01.2019 01:00:00 8,6 5,6 - 0,0
16.01.2019 00:00:00 8,6 5,2 - 0,0
15.01.2019 23:00:00 8,5 5,0 - 0,0
15.01.2019 22:00:00 8,8 5,1 - 0,0
15.01.2019 21:00:00 8,7 5,2 - 0,0
15.01.2019 20:00:00 8,7 5,5 - 0,0
15.01.2019 19:00:00 8,8 5,2 - 0,0
15.01.2019 18:00:00 8,7 5,1 - 0,0
15.01.2019 17:00:00 8,4 4,8 - 0,0
15.01.2019 16:00:00 8,6 4,3 - 0,0
15.01.2019 15:00:00 9,8 2,3 - 0,0
15.01.2019 14:00:00 9,7 2,5 - 0,0
15.01.2019 13:00:00 9,6 3,0 - 0,0
15.01.2019 12:00:00 9,1 3,4 - 0,0
15.01.2019 11:00:00 8,8 4,0 - 0,0
15.01.2019 10:00:00 8,2 4,0 - 0,0
15.01.2019 09:00:00 8,0 3,9 - 0,0
15.01.2019 08:00:00 7,7 3,5 - 0,0
15.01.2019 07:00:00 7,5 3,8 - 0,0
15.01.2019 06:00:00 8,0 4,4 - 0,0
15.01.2019 05:00:00 7,9 4,3 - 0,0
15.01.2019 04:00:00 7,7 4,5 - 0,0
15.01.2019 03:00:00 7,4 4,5 - 0,0
15.01.2019 02:00:00 7,1 4,2 - 0,0
15.01.2019 01:00:00 6,6 3,5 - 0,0
15.01.2019 00:00:00 6,2 3,6 - 0,0
14.01.2019 23:00:00 6,4 2,6 - 0,0
14.01.2019 22:00:00 6,6 3,2 - 0,0
14.01.2019 21:00:00 6,6 3,1 - 0,0
14.01.2019 20:00:00 6,6 3,2 - 0,0
14.01.2019 19:00:00 6,9 2,9 - 0,0
14.01.2019 18:00:00 6,8 3,0 - 0,0
14.01.2019 17:00:00 6,9 3,5 - 0,0
14.01.2019 16:00:00 7,3 3,1 - 0,0
14.01.2019 15:00:00 7,7 2,7 - 0,0
14.01.2019 14:00:00 8,1 2,8 - 0,0
14.01.2019 13:00:00 8,3 2,9 - 0,0
14.01.2019 12:00:00 7,8 2,9 - 0,0
14.01.2019 11:00:00 7,3 2,9 - 0,0
14.01.2019 10:00:00 6,7 2,9 - 0,0
14.01.2019 09:00:00 6,3 2,9 - 0,0
14.01.2019 08:00:00 6,2 2,9 - 0,0
14.01.2019 07:00:00 6,4 2,8 - 0,0
14.01.2019 06:00:00 6,4 2,7 - 0,0
14.01.2019 05:00:00 6,5 2,8 - 0,0
14.01.2019 04:00:00 6,7 2,8 - 0,0
14.01.2019 03:00:00 6,8 2,9 - 0,0
14.01.2019 02:00:00 7,1 2,9 - 0,0
14.01.2019 01:00:00 7,2 3,1 - 0,0
14.01.2019 00:00:00 7,3 3,0 - 0,0
13.01.2019 23:00:00 7,1 2,5 - 0,0
13.01.2019 22:00:00 7,2 2,7 - 0,0
13.01.2019 21:00:00 6,9 3,8 - 0,2
13.01.2019 20:00:00 7,4 3,9 - 0,0
13.01.2019 19:00:00 7,7 2,9 - 0,0
13.01.2019 18:00:00 8,0 3,0 - 0,0
13.01.2019 17:00:00 8,3 3,7 - 0,0
13.01.2019 16:00:00 9,3 4,6 - 0,0
13.01.2019 15:00:00 10,0 6,8 - 0,0
13.01.2019 14:00:00 10,7 6,4 - 0,0
13.01.2019 13:00:00 10,6 6,2 - 0,0
13.01.2019 12:00:00 10,2 6,9 - 0,0
13.01.2019 11:00:00 9,6 7,8 - 0,0
13.01.2019 10:00:00 9,4 7,4 - 0,2
13.01.2019 09:00:00 8,8 7,1 - 0,0

tt = temperature
td = dewpoint
sd = sunshine duration
rr = precipitation

Next stations